Home   Weather   41°27'N, 81°44'W   Past weeks
Flag for USA

Past Weather in 41°27'N, 81°44'W, USA — Yesterday and Last 2 Weeks

Now
90 °F

Broken clouds.


Feels Like: 105 °F
Forecast: 92 / 78 °F
Wind: 13 mph from Southwest

Location: Cleveland-Hopkins International Airport

Current Time: Jul 19, 2019 at 2:50:01 pm

Latest Report: Jul 19, 2019 at 1:51 pm


Visibility: 10 mi

Pressure: 29.90 "Hg

Humidity: 68%

Dew Point: 78 °F

Location of 41°27'N, 81°44'WLocation

Past Weather in 41°27'N, 81°44'W — Graph

°F

41°27'N, 81°44'W Temperature Yesterday

Maximum temperature yesterday: 90 °F (at 4:51 pm)
Minimum temperature yesterday: 69 °F (at 5:51 am)
Average temperature yesterday: 80 °F

High & Low Weather Summary for the Past Weeks

 TemperatureHumidityPressure
High93 °F (Jul 10, 3:51 pm)94% (Jul 16, 9:51 pm)30.15 "Hg (Jul 16, 9:51 pm)
Low59 °F (Jul 9, 1:51 am)25% (Jul 14, 5:51 pm)29.79 "Hg (Jul 11, 5:51 pm)
Average78 °F67%29.98 "Hg
* Reported Jul 4 2:34 pm — Jul 19 1:36 pm, 41°27'N, 81°44'W. Weather by CustomWeather, © 2019

Note: Actual official high and low records may vary slightly from our data, if they occured in-between our weather recording intervals... More about our weather records

Advertising

41°27'N, 81°44'W Weather History for the Previous 24 Hours

Scroll right to see more
 ConditionsComfort  
Time TempWeatherWind HumidityBarometerVisibility
1:36 pm
Fri, Jul 19
89 °FPartly sunny.16 mph68%29.92 "Hg10 mi
12:51 pm89 °FBroken clouds.13 mph70%29.90 "Hg10 mi
12:40 pm89 °FBroken clouds.13 mph70%29.93 "Hg10 mi
11:51 am87 °FPartly sunny.14 mph72%29.90 "Hg10 mi
10:51 am86 °FPartly sunny.14 mph72%29.92 "Hg10 mi
10:01 am85 °FPartly sunny.13 mph75%29.95 "Hg10 mi
8:51 am82 °FPartly sunny.10 mph77%29.91 "Hg10 mi
7:51 am80 °FPassing clouds.9 mph79%29.90 "Hg10 mi
6:51 am78 °FPassing clouds.12 mph82%29.89 "Hg10 mi
5:51 am78 °FPassing clouds.12 mph79%29.89 "Hg10 mi
4:51 am79 °FClear.9 mph77%29.88 "Hg10 mi
3:51 am80 °FClear.14 mph71%29.88 "Hg10 mi
2:51 am81 °FPassing clouds.12 mph69%29.89 "Hg10 mi
1:51 am81 °FPassing clouds.9 mph69%29.90 "Hg10 mi
12:51 am80 °FOvercast.9 mph76%29.90 "Hg10 mi
11:51 pm
Thu, Jul 18
80 °FPassing clouds.10 mph76%29.89 "Hg10 mi
10:51 pm80 °FPassing clouds.8 mph76%29.89 "Hg10 mi
9:51 pm80 °FPassing clouds.7 mph74%29.88 "Hg10 mi
8:51 pm82 °FPartly sunny.7 mph67%29.87 "Hg10 mi
7:51 pm83 °FOvercast.7 mph70%29.85 "Hg10 mi
6:51 pm86 °FMore clouds than sun.7 mph61%29.82 "Hg10 mi
5:51 pm87 °FBroken clouds.10 mph59%29.84 "Hg10 mi
4:51 pm90 °FBroken clouds.8 mph52%29.90 "Hg10 mi
3:51 pm89 °FBroken clouds.5 mph57%29.91 "Hg10 mi
2:51 pm88 °FBroken clouds.7 mph55%29.94 "Hg10 mi
Weather by CustomWeather, © 2019

See weather overview